Weather History for KTCM - February, 2013

Change the Weather History Date:

Monday, February 25, 2013

  Actual Average Record
Temperature  
Mean Temperature 42 °F -  
Max Temperature 49 °F 48 °F 61 °F (1991)
Min Temperature 32 °F 30 °F 18 °F (1962)
Degree Days  
Heating Degree Days 24    
Moisture  
Dew Point 38 °F    
Average Humidity 87    
Maximum Humidity 100    
Minimum Humidity 52    
Precipitation  
Precipitation 0.12 in - - ()
Sea Level Pressure  
Sea Level Pressure 30.06 in    
Wind  
Wind Speed 13 mph (SSW)    
Max Wind Speed 23 mph    
Max Gust Speed 36 mph    
Visibility 10 miles    
Events Rain    
Averages and records for this station are not official NWS values.
T = Trace of Precipitation, MM = Missing Value Source: NWS Daily Summary

Daily Weather History Graph

Daily Weather History Graph

Search for Another Location

Airport or City:

Trip Planner

Search our weather history database for the weather conditions in past years. The results will help you decide how hot, cold, wet, or windy it might be!

Date:

Astronomy

Feb. 25, 2013 Rise Set
Actual Time 6:56 AM PST 5:49 PM PST
Civil Twilight 6:25 AM PST 6:20 PM PST
Nautical Twilight 5:50 AM PST 6:56 PM PST
Astronomical Twilight 5:15 AM PST 7:31 PM PST
Moon 6:13 PM PST (2/25) 6:27 AM PST (2/25)
Length of Visible Light 11h 54m
Length of Day
10h 53m
Full, 100% of the Moon is Illuminated
Feb 25
Full
Feb 25
Full
Mar 4
Last Quarter
Mar 11
New
Mar 19
First Quarter

Hourly Weather History & Observations

Time (PST) Temp. Windchill Dew Point Humidity Pressure Visibility Wind Dir Wind Speed Gust Speed Precip Events Conditions
12:33 AM 42.8 °F 35.8 °F 37.4 °F 81% 29.94 in 10.0 mi South 13.8 mph - N/A Rain Light Rain
12:38 AM 42.8 °F 36.6 °F 35.6 °F 76% 29.93 in 10.0 mi SSE 11.5 mph - N/A Rain Light Rain
12:58 AM 41.9 °F 35.0 °F 37.4 °F 84% 29.95 in 10.0 mi SSE 12.7 mph - 0.02 in Rain Light Rain
1:33 AM 41.0 °F 35.8 °F 39.2 °F 93% 29.92 in 10.0 mi South 8.1 mph - N/A Rain Light Rain
1:38 AM 41.0 °F 35.8 °F 39.2 °F 93% 29.92 in 10.0 mi South 8.1 mph - N/A Rain Light Rain
1:43 AM 41.0 °F 35.8 °F 39.2 °F 93% 29.92 in 10.0 mi South 8.1 mph - N/A Rain Light Rain
1:48 AM 41.0 °F 36.4 °F 39.2 °F 93% 29.92 in 10.0 mi South 6.9 mph - N/A Rain Light Rain
1:53 AM 41.0 °F 36.4 °F 39.2 °F 93% 29.92 in 10.0 mi South 6.9 mph - N/A Rain Light Rain
1:58 AM 40.5 °F 35.8 °F 39.6 °F 97% 29.94 in 10.0 mi South 6.9 mph - 0.03 in Rain Light Rain
2:33 AM 41.0 °F 33.9 °F 41.0 °F 100% 29.93 in 10.0 mi SSW 12.7 mph - N/A   Overcast
2:45 AM 42.8 °F 34.5 °F 39.2 °F 87% 29.93 in 10.0 mi SSW 18.4 mph 27.6 mph N/A Rain Light Rain
2:58 AM 41.7 °F 33.7 °F 39.7 °F 93% 29.96 in 10.0 mi SSW 16.1 mph 26.5 mph 0.02 in Rain Light Rain
3:03 AM 41.0 °F 32.8 °F 39.2 °F 93% 29.94 in 10.0 mi SSW 16.1 mph 24.2 mph N/A   Overcast
3:13 AM 41.0 °F 33.1 °F 39.2 °F 93% 29.94 in 10.0 mi SSW 15.0 mph - N/A Rain Light Rain
3:25 AM 41.0 °F 33.9 °F 39.2 °F 93% 29.95 in 10.0 mi SSW 12.7 mph - N/A Rain Light Rain
3:27 AM 41.0 °F 33.1 °F 39.2 °F 93% 29.95 in 10.0 mi South 15.0 mph - N/A   Mostly Cloudy
3:37 AM 41.0 °F 33.5 °F 39.2 °F 93% 29.95 in 10.0 mi South 13.8 mph - N/A   Mostly Cloudy
3:58 AM 40.5 °F 32.8 °F 39.7 °F 97% 29.98 in 10.0 mi South 13.8 mph - 0.00 in   Mostly Cloudy
4:43 AM 41.0 °F 33.9 °F 39.2 °F 93% 29.98 in 10.0 mi SSW 12.7 mph - N/A   Mostly Cloudy
4:47 AM 41.0 °F 33.9 °F 39.2 °F 93% 29.98 in 10.0 mi South 12.7 mph - N/A Rain Light Rain
4:58 AM 40.8 °F 33.3 °F 39.7 °F 96% 30.01 in 10.0 mi SSW 13.8 mph - 0.00 in Rain Light Rain
5:03 AM 41.0 °F 33.9 °F 39.2 °F 93% 29.99 in 10.0 mi SSW 12.7 mph - N/A   Overcast
5:27 AM 41.0 °F 33.1 °F 39.2 °F 93% 30.00 in 10.0 mi SSW 15.0 mph - N/A Rain Light Rain
5:42 AM 41.0 °F 33.5 °F 39.2 °F 93% 30.00 in 10.0 mi South 13.8 mph 21.9 mph N/A Rain Light Rain
5:47 AM 41.0 °F 33.9 °F 39.2 °F 93% 30.00 in 10.0 mi South 12.7 mph 21.9 mph N/A Rain Light Rain
5:58 AM 40.5 °F 32.5 °F 39.4 °F 96% 30.03 in 10.0 mi SSW 15.0 mph - 0.01 in Rain Light Rain
6:18 AM 41.0 °F 32.5 °F 39.2 °F 93% 30.01 in 10.0 mi South 17.3 mph - N/A Rain Light Rain
6:21 AM 41.0 °F 32.8 °F 39.2 °F 93% 30.01 in 10.0 mi SSW 16.1 mph - N/A   Overcast
6:44 AM 39.2 °F 29.6 °F 39.2 °F 100% 29.99 in 10.0 mi SSW 19.6 mph 25.3 mph N/A Rain Light Rain
6:49 AM 39.2 °F 30.2 °F 39.2 °F 100% 30.00 in 10.0 mi SSW 17.3 mph 25.3 mph N/A   Overcast
6:52 AM 39.2 °F 30.5 °F 39.2 °F 100% 30.00 in 10.0 mi SSW 16.1 mph 25.3 mph N/A Rain Light Rain
6:57 AM 39.2 °F 29.8 °F 37.4 °F 93% 30.00 in 10.0 mi SSW 18.4 mph 25.3 mph N/A Rain Light Rain
6:58 AM 39.9 °F 30.8 °F 38.3 °F 94% 30.02 in 10.0 mi SSW 18.4 mph 25.3 mph 0.00 in Rain Light Rain
7:33 AM 39.2 °F 31.2 °F 37.4 °F 93% 30.03 in 10.0 mi SSW 13.8 mph 25.3 mph N/A   Overcast
7:38 AM 39.2 °F 31.2 °F 37.4 °F 93% 30.03 in 10.0 mi SSW 13.8 mph 23.0 mph N/A   Mostly Cloudy
7:53 AM 39.2 °F 31.6 °F 37.4 °F 93% 30.04 in 10.0 mi SSW 12.7 mph 23.0 mph N/A   Mostly Cloudy
7:58 AM 39.4 °F 30.4 °F 37.9 °F 95% 30.06 in 10.0 mi SSW 17.3 mph 23.0 mph 0.01 in   Mostly Cloudy
8:03 AM 39.2 °F 30.8 °F 37.4 °F 93% 30.04 in 10.0 mi SSW 15.0 mph 25.3 mph N/A   Mostly Cloudy
8:09 AM 39.2 °F 30.5 °F 37.4 °F 93% 30.06 in 10.0 mi SSW 16.1 mph 25.3 mph N/A   Overcast
8:58 AM 40.5 °F 31.8 °F 38.5 °F 93% 30.07 in 10.0 mi SSW 17.3 mph 26.5 mph N/A   Overcast
9:00 AM 41.0 °F 33.1 °F 39.2 °F 93% 30.06 in 10.0 mi SW 15.0 mph 26.5 mph N/A Rain Light Rain
9:05 AM 41.0 °F 32.8 °F 39.2 °F 93% 30.05 in 8.0 mi SSW 16.1 mph - N/A Rain Light Rain
9:21 AM 41.0 °F 32.5 °F 39.2 °F 93% 30.06 in 10.0 mi SW 17.3 mph 26.5 mph N/A   Mostly Cloudy
9:31 AM 41.0 °F 32.2 °F 39.2 °F 93% 30.06 in 10.0 mi SSW 18.4 mph 27.6 mph N/A   Mostly Cloudy
9:58 AM 42.4 °F 33.5 °F 38.8 °F 87% 30.09 in 10.0 mi SW 20.7 mph 27.6 mph 0.00 in   Clear
10:58 AM 45.1 °F 37.6 °F 38.5 °F 77% 30.12 in 10.0 mi SW 18.4 mph 29.9 mph N/A   Mostly Cloudy
11:51 AM 46.4 °F 39.2 °F 37.4 °F 71% 30.12 in 10.0 mi SW 18.4 mph 35.7 mph N/A Rain Light Rain
11:56 AM 46.4 °F 38.7 °F 37.4 °F 71% 30.12 in 10.0 mi SW 20.7 mph 31.1 mph N/A Rain Light Rain
12:01 PM 46.4 °F 39.0 °F 37.4 °F 71% 30.12 in 10.0 mi SW 19.6 mph 28.8 mph N/A Rain Light Rain
12:10 PM 44.6 °F 35.9 °F 39.2 °F 81% 30.13 in 5.0 mi SW 23.0 mph 29.9 mph N/A Rain Light Rain
12:42 PM 42.8 °F 35.8 °F 39.2 °F 87% 30.14 in 10.0 mi SW 13.8 mph 23.0 mph N/A   Mostly Cloudy
12:47 PM 44.6 °F 38.8 °F 39.2 °F 81% 30.14 in 10.0 mi SW 11.5 mph - N/A   Scattered Clouds
12:58 PM 46.6 °F - 37.6 °F 71% 30.15 in 10.0 mi WSW 18.4 mph 27.6 mph 0.03 in   Partly Cloudy
1:58 PM 48.7 °F - 34.0 °F 57% 30.15 in 10.0 mi WSW 20.7 mph - N/A   Partly Cloudy
2:58 PM 49.1 °F - 32.0 °F 52% 30.17 in 10.0 mi WSW 20.7 mph 26.5 mph N/A   Partly Cloudy
3:58 PM 46.6 °F - 33.6 °F 61% 30.18 in 10.0 mi WSW 17.3 mph 34.5 mph N/A   Clear
4:07 PM 44.6 °F 36.4 °F 33.8 °F 66% 30.16 in 10.0 mi WSW 20.7 mph 34.5 mph N/A Rain Light Rain
4:15 PM 44.6 °F 36.9 °F 35.6 °F 71% 30.18 in 10.0 mi WSW 18.4 mph 28.8 mph N/A   Clear
4:58 PM 44.6 °F 37.4 °F 35.1 °F 69% 30.20 in 10.0 mi SW 16.1 mph 21.9 mph 0.00 in   Scattered Clouds
5:58 PM 42.8 °F 38.6 °F 33.3 °F 69% 30.23 in 10.0 mi SSW 6.9 mph - N/A   Clear
6:58 PM 41.0 °F 35.2 °F 34.0 °F 76% 30.25 in 10.0 mi SSW 9.2 mph 18.4 mph N/A   Scattered Clouds
7:58 PM 38.8 °F 35.4 °F 34.0 °F 83% 30.27 in 10.0 mi SSE 4.6 mph - N/A   Clear
8:13 PM 37.4 °F 32.1 °F 33.8 °F 87% 30.26 in 10.0 mi ESE 6.9 mph - N/A   Mostly Cloudy
8:33 PM 37.4 °F 30.3 °F 33.8 °F 87% 30.27 in 10.0 mi SSE 10.4 mph - N/A   Scattered Clouds
8:58 PM 37.0 °F 29.8 °F 34.2 °F 89% 30.30 in 10.0 mi South 10.4 mph - N/A   Partly Cloudy
9:58 PM 35.6 °F 30.7 °F 33.8 °F 93% 30.31 in 10.0 mi South 5.8 mph - N/A   Clear
10:58 PM 34.0 °F 28.8 °F 32.7 °F 95% 30.32 in 10.0 mi SSE 5.8 mph - N/A   Clear
11:58 PM 32.9 °F - 32.4 °F 98% 30.33 in 10.0 mi SSE 2.3 mph - N/A   Clear